QPF
0.00 0.00 0.00 0.00 0.00 0.00 0.01 0.01 0.02 0.01 0.00 0.00 0.00 0.01 0.01 0.01 0.01 0.01 0.01 0.00 0.00 0.00 0.01 0.00 0.00 0.00 0.01 0.01 0.01 0.01 0.01 0.01 0.01 0.01 0.00 0.00 0.01 0.01 0.01 0.01 0.01 0.01 0.01 0.01
0.01 0.00 0.00 0.00 0.00 0.00 0.01 0.01 0.01 0.01 0.01 0.01 0.01 0.01 0.01 0.01 0.00 0.00 0.00 0.00 0.00 0.00 0.01 0.01 0.00 0.00 0.00 0.00 0.00 0.00 0.00 0.00 0.01 0.01 0.01 0.01 0.01 0.01 0.01 0.01 0.01 0.01 0.01 0.01
0.02 0.01 0.01 0.01 0.00 0.00 0.00 0.00 0.00 0.01 0.01 0.01 0.01 0.01 0.01 0.01 0.01 0.01 0.01 0.01 0.01 0.01 0.01 0.01 0.01 0.01 0.01 0.00 0.00 0.00 0.00 0.00 0.00 0.00 0.01 0.01 0.01 0.01 0.01 0.01 0.01 0.01 0.01 0.01
0.04 0.03 0.02 0.00 0.00 0.00 0.00 0.00 0.00 0.00 0.00 0.00 0.01 0.01 0.01 0.01 0.01 0.01 0.01 0.01 0.01 0.01 0.01 0.01 0.01 0.01 0.01 0.01 0.00 0.00 0.00 0.00 0.00 0.00 0.00 0.00 0.01 0.01 0.01 0.01 0.02 0.02 0.01 0.01
0.05 0.04 0.01 0.00 0.00 0.00 0.00 0.01 0.00 0.00 0.00 0.00 0.00 0.01 0.01 0.01 0.01 0.00 0.00 0.00 0.00 0.00 0.00 0.00 0.00 0.00 0.00 0.00 0.00 0.00 0.00 0.00 0.00 0.00 0.00 0.00 0.01 0.01 0.01 0.01 0.02 0.02 0.02 0.02
0.05 0.04 0.01 0.00 0.00 0.00 0.00 0.01 0.00 0.00 0.00 0.00 0.00 0.00 0.00 0.00 0.00 0.00 0.00 0.00 0.00 0.00 0.00 0.00 0.00 0.00 0.00 0.00 0.00 0.00 0.00 0.00 0.00 0.00 0.00 0.00 0.01 0.01 0.01 0.02 0.02 0.02 0.02 0.02
0.04 0.04 0.02 0.01 0.00 0.00 0.01 0.01 0.00 0.00 0.00 0.00 0.00 0.00 0.00 0.00 0.00 0.00 0.00 0.00 0.00 0.00 0.00 0.00 0.00 0.00 0.00 0.00 0.00 0.00 0.00 0.00 0.00 0.00 0.00 0.00 0.01 0.01 0.01 0.01 0.02 0.02 0.02 0.02
0.02 0.04 0.02 0.01 0.00 0.01 0.01 0.01 0.00 0.00 0.00 0.00 0.00 0.00 0.00 0.00 0.00 0.00 0.00 0.00 0.00 0.00 0.00 0.00 0.00 0.00 0.00 0.00 0.00 0.00 0.00 0.00 0.00 0.00 0.00 0.00 0.01 0.01 0.01 0.01 0.02 0.02 0.02 0.01
0.02 0.01 0.01 0.01 0.01 0.01 0.01 0.00 0.00 0.00 0.00 0.00 0.00 0.00 0.00 0.00 0.00 0.00 0.00 0.00 0.01 0.01 0.01 0.01 0.00 0.00 0.00 0.00 0.00 0.00 0.00 0.00 0.00 0.01 0.01 0.01 0.01 0.01 0.01 0.01 0.02 0.02 0.02 0.01
0.01 0.01 0.01 0.01 0.01 0.01 0.01 0.01 0.01 0.00 0.00 0.00 0.00 0.00 0.00 0.00 0.01 0.01 0.01 0.01 0.01 0.01 0.01 0.01 0.00 0.00 0.00 0.00 0.00 0.00 0.00 0.00 0.01 0.01 0.01 0.01 0.01 0.01 0.01 0.01 0.02 0.02 0.02 0.02
0.01 0.01 0.01 0.01 0.01 0.01 0.01 0.00 0.00 0.00 0.00 0.00 0.00 0.00 0.00 0.01 0.01 0.01 0.01 0.01 0.01 0.01 0.01 0.01 0.00 0.00 0.00 0.00 0.00 0.00 0.00 0.00 0.01 0.01 0.01 0.01 0.01 0.01 0.01 0.01 0.02 0.02 0.02 0.02
0.01 0.01 0.01 0.01 0.01 0.00 0.00 0.00 0.00 0.00 0.00 0.00 0.00 0.01 0.01 0.01 0.01 0.01 0.01 0.01 0.01 0.01 0.01 0.00 0.00 0.00 0.00 0.00 0.00 0.00 0.00 0.00 0.01 0.01 0.01 0.01 0.01 0.01 0.01 0.01 0.02 0.02 0.02 0.03
0.01 0.00 0.00 0.00 0.00 0.00 0.00 0.00 0.00 0.00 0.00 0.00 0.01 0.01 0.01 0.01 0.01 0.01 0.01 0.01 0.01 0.01 0.00 0.00 0.00 0.00 0.00 0.00 0.00 0.01 0.01 0.01 0.01 0.01 0.01 0.01 0.01 0.01 0.01 0.01 0.02 0.02 0.02 0.02
0.00 0.00 0.00 0.01 0.00 0.00 0.00 0.00 0.00 0.00 0.00 0.01 0.01 0.01 0.01 0.01 0.01 0.01 0.01 0.01 0.01 0.00 0.00 0.00 0.00 0.00 0.00 0.00 0.01 0.01 0.01 0.01 0.01 0.01 0.01 0.01 0.01 0.01 0.01 0.01 0.01 0.02 0.02 0.02
0.01 0.01 0.01 0.01 0.00 0.00 0.00 0.00 0.00 0.01 0.01 0.01 0.01 0.01 0.01 0.01 0.01 0.01 0.01 0.01 0.00 0.00 0.00 0.00 0.00 0.00 0.00 0.00 0.00 0.00 0.00 0.01 0.01 0.01 0.01 0.01 0.01 0.01 0.01 0.01 0.01 0.01 0.01 0.01
0.01 0.00 0.00 0.00 0.00 0.00 0.00 0.00 0.01 0.01 0.01 0.01 0.01 0.01 0.01 0.01 0.01 0.01 0.01 0.01 0.00 0.00 0.00 0.00 0.00 0.00 0.00 0.00 0.00 0.00 0.00 0.01 0.01 0.01 0.01 0.01 0.01 0.01 0.01 0.01 0.01 0.01 0.01 0.01
0.00 0.00 0.00 0.00 0.00 0.00 0.01 0.01 0.01 0.01 0.01 0.01 0.01 0.01 0.01 0.01 0.01 0.01 0.01 0.01 0.01 0.01 0.00 0.00 0.00 0.00 0.00 0.00 0.00 0.00 0.00 0.00 0.01 0.01 0.01 0.01 0.01 0.01 0.01 0.01 0.01 0.01 0.01 0.02
0.00 0.00 0.00 0.00 0.01 0.01 0.01 0.01 0.01 0.01 0.01 0.01 0.01 0.01 0.01 0.01 0.01 0.00 0.00 0.00 0.00 0.00 0.00 0.00 0.00 0.00 0.00 0.00 0.00 0.00 0.00 0.00 0.00 0.01 0.01 0.01 0.01 0.01 0.01 0.01 0.01 0.01 0.01 0.01
0.00 0.00 0.01 0.01 0.01 0.01 0.01 0.01 0.01 0.01 0.01 0.01 0.01 0.01 0.01 0.01 0.00 0.00 0.00 0.00 0.00 0.00 0.00 0.00 0.00 0.00 0.00 0.00 0.00 0.00 0.00 0.00 0.00 0.00 0.00 0.01 0.01 0.00 0.01 0.01 0.01 0.01 0.01 0.01
0.01 0.01 0.01 0.01 0.01 0.00 0.01 0.01 0.00 0.01 0.01 0.01 0.01 0.01 0.00 0.00 0.00 0.00 0.00 0.00 0.00 0.00 0.00 0.00 0.00 0.00 0.00 0.00 0.01 0.01 0.00 0.00 0.00 0.00 0.00 0.00 0.00 0.00 0.00 0.01 0.01 0.01 0.01 0.01
0.01 0.01 0.01 0.00 0.00 0.00 0.00 0.00 0.00 0.00 0.01 0.01 0.01 0.01 0.01 0.00 0.00 0.00 0.00 0.00 0.00 0.00 0.00 0.00 0.00 0.00 0.00 0.00 0.01 0.00 0.00 0.00 0.00 0.00 0.00 0.00 0.00 0.00 0.00 0.00 0.01 0.01 0.01 0.01
0.01 0.01 0.01 0.00 0.00 0.00 0.00 0.00 0.00 0.00 0.01 0.01 0.01 0.01 0.01 0.01 0.00 0.00 0.00 0.00 0.00 0.00 0.00 0.00 0.00 0.01 0.01 0.01 0.01 0.00 0.00 0.00 0.00 0.00 0.00 0.00 0.00 0.00 0.00 0.00 0.01 0.01 0.01 0.01
0.01 0.01 0.01 0.01 0.00 0.00 0.00 0.00 0.00 0.00 0.01 0.01 0.01 0.01 0.01 0.01 0.00 0.00 0.00 0.00 0.00 0.00 0.00 0.00 0.00 0.01 0.01 0.01 0.00 0.00 0.00 0.00 0.00 0.00 0.00 0.00 0.00 0.00 0.01 0.01 0.01 0.01 0.01 0.01
0.01 0.01 0.01 0.01 0.00 0.00 0.00 0.01 0.01 0.01 0.01 0.01 0.01 0.01 0.01 0.00 0.00 0.00 0.00 0.00 0.00 0.00 0.00 0.00 0.01 0.01 0.01 0.01 0.00 0.00 0.00 0.00 0.00 0.00 0.00 0.00 0.00 0.00 0.00 0.00 0.00 0.00 0.01 0.01
0.01 0.01 0.01 0.01 0.01 0.00 0.01 0.01 0.01 0.00 0.01 0.01 0.01 0.01 0.01 0.00 0.00 0.00 0.00 0.00 0.00 0.00 0.00 0.00 0.00 0.01 0.00 0.00 0.00 0.00 0.00 0.00 0.00 0.00 0.00 0.00 0.00 0.00 0.00 0.00 0.00 0.01 0.00 0.01
0.01 0.01 0.01 0.01 0.01 0.01 0.01 0.01 0.01 0.01 0.01 0.01 0.01 0.00 0.00 0.00 0.00 0.00 0.00 0.00 0.00 0.00 0.00 0.00 0.00 0.00 0.00 0.00 0.00 0.00 0.00 0.00 0.00 0.00 0.00 0.00 0.00 0.00 0.00 0.00 0.00 0.00 0.01 0.01
0.01 0.01 0.01 0.01 0.01 0.01 0.01 0.01 0.01 0.01 0.01 0.01 0.01 0.00 0.00 0.00 0.00 0.00 0.00 0.00 0.00 0.00 0.00 0.00 0.00 0.00 0.00 0.00 0.00 0.00 0.00 0.00 0.00 0.00 0.00 0.00 0.00 0.00 0.00 0.00 0.00 0.00 0.01 0.01
MSLP
1030.77 1032.07 1033.20 1034.08 1034.67 1034.99 1035.11 1035.11 1035.11 1035.20 1035.44 1035.89 1036.53 1037.31 1038.16 1038.98 1039.70 1040.25 1040.61 1040.76 1040.75 1040.63 1040.45 1040.25 1040.08 1039.94 1039.83 1039.73 1039.61 1039.45 1039.24 1038.97 1038.66 1038.32 1037.96 1037.62 1037.28 1036.96 1036.64 1036.30 1035.93 1035.53 1035.08 1034.60
1030.31 1031.57 1032.67 1033.57 1034.22 1034.65 1034.89 1035.04 1035.17 1035.37 1035.70 1036.19 1036.83 1037.58 1038.38 1039.13 1039.79 1040.28 1040.60 1040.74 1040.74 1040.64 1040.49 1040.34 1040.22 1040.13 1040.07 1040.01 1039.93 1039.81 1039.63 1039.39 1039.09 1038.75 1038.40 1038.05 1037.71 1037.39 1037.06 1036.73 1036.38 1035.99 1035.57 1035.12
1029.46 1030.61 1031.66 1032.55 1033.26 1033.80 1034.20 1034.53 1034.85 1035.22 1035.68 1036.27 1036.96 1037.71 1038.48 1039.19 1039.79 1040.23 1040.52 1040.65 1040.65 1040.58 1040.48 1040.38 1040.31 1040.27 1040.25 1040.23 1040.18 1040.08 1039.91 1039.69 1039.40 1039.08 1038.74 1038.40 1038.07 1037.76 1037.46 1037.15 1036.82 1036.46 1036.07 1035.64
1028.42 1029.44 1030.42 1031.30 1032.07 1032.72 1033.29 1033.81 1034.33 1034.89 1035.52 1036.22 1036.97 1037.74 1038.48 1039.15 1039.70 1040.10 1040.36 1040.48 1040.51 1040.47 1040.42 1040.37 1040.35 1040.35 1040.37 1040.37 1040.34 1040.25 1040.10 1039.88 1039.61 1039.30 1038.98 1038.67 1038.38 1038.10 1037.83 1037.56 1037.27 1036.93 1036.56 1036.15
1027.47 1028.39 1029.29 1030.16 1030.98 1031.75 1032.47 1033.17 1033.87 1034.60 1035.36 1036.15 1036.94 1037.71 1038.43 1039.05 1039.54 1039.91 1040.14 1040.27 1040.31 1040.32 1040.32 1040.33 1040.36 1040.40 1040.44 1040.46 1040.43 1040.35 1040.19 1039.98 1039.72 1039.43 1039.15 1038.88 1038.63 1038.40 1038.17 1037.94 1037.67 1037.36 1036.99 1036.58
1026.93 1027.76 1028.62 1029.48 1030.34 1031.18 1032.01 1032.84 1033.67 1034.50 1035.34 1036.17 1036.96 1037.70 1038.36 1038.91 1039.35 1039.67 1039.89 1040.02 1040.10 1040.16 1040.21 1040.28 1040.35 1040.43 1040.48 1040.50 1040.47 1040.37 1040.21 1039.99 1039.75 1039.49 1039.24 1039.02 1038.81 1038.63 1038.44 1038.23 1037.99 1037.68 1037.30 1036.86
1027.02 1027.80 1028.63 1029.47 1030.34 1031.22 1032.10 1032.98 1033.85 1034.71 1035.54 1036.34 1037.08 1037.74 1038.31 1038.78 1039.15 1039.43 1039.63 1039.78 1039.90 1040.01 1040.11 1040.23 1040.34 1040.44 1040.50 1040.51 1040.45 1040.33 1040.16 1039.94 1039.70 1039.47 1039.25 1039.06 1038.90 1038.75 1038.59 1038.40 1038.15 1037.82 1037.41 1036.93
1027.85 1028.60 1029.39 1030.20 1031.04 1031.89 1032.75 1033.59 1034.41 1035.21 1035.96 1036.65 1037.28 1037.82 1038.28 1038.66 1038.96 1039.20 1039.40 1039.56 1039.72 1039.87 1040.03 1040.19 1040.32 1040.43 1040.48 1040.46 1040.38 1040.23 1040.03 1039.81 1039.57 1039.35 1039.16 1039.00 1038.86 1038.73 1038.58 1038.38 1038.10 1037.74 1037.29 1036.76
1029.32 1030.05 1030.79 1031.55 1032.31 1033.06 1033.81 1034.54 1035.23 1035.89 1036.49 1037.03 1037.51 1037.92 1038.26 1038.55 1038.79 1038.99 1039.19 1039.37 1039.57 1039.76 1039.96 1040.14 1040.28 1040.38 1040.40 1040.36 1040.24 1040.06 1039.83 1039.59 1039.35 1039.13 1038.95 1038.80 1038.67 1038.54 1038.38 1038.15 1037.84 1037.44 1036.93 1036.35
1031.23 1031.91 1032.58 1033.23 1033.85 1034.46 1035.04 1035.60 1036.11 1036.58 1037.00 1037.38 1037.70 1037.97 1038.21 1038.42 1038.61 1038.80 1039.00 1039.21 1039.43 1039.66 1039.87 1040.05 1040.19 1040.26 1040.25 1040.16 1040.00 1039.78 1039.53 1039.27 1039.03 1038.81 1038.63 1038.48 1038.35 1038.20 1038.01 1037.74 1037.39 1036.94 1036.39 1035.76
1033.23 1033.83 1034.39 1034.89 1035.35 1035.78 1036.17 1036.52 1036.84 1037.12 1037.37 1037.59 1037.78 1037.96 1038.12 1038.28 1038.45 1038.64 1038.85 1039.07 1039.31 1039.54 1039.74 1039.91 1040.01 1040.04 1039.99 1039.85 1039.65 1039.41 1039.13 1038.86 1038.61 1038.40 1038.22 1038.06 1037.91 1037.74 1037.51 1037.21 1036.81 1036.31 1035.73 1035.09
1034.99 1035.48 1035.89 1036.23 1036.51 1036.75 1036.95 1037.11 1037.26 1037.40 1037.52 1037.63 1037.75 1037.87 1038.01 1038.16 1038.33 1038.52 1038.74 1038.96 1039.18 1039.39 1039.56 1039.67 1039.72 1039.70 1039.59 1039.42 1039.19 1038.92 1038.65 1038.38 1038.14 1037.93 1037.75 1037.59 1037.42 1037.22 1036.95 1036.61 1036.18 1035.66 1035.06 1034.42
1036.28 1036.63 1036.88 1037.06 1037.18 1037.25 1037.30 1037.34 1037.38 1037.42 1037.48 1037.56 1037.66 1037.78 1037.93 1038.09 1038.28 1038.48 1038.68 1038.88 1039.06 1039.20 1039.30 1039.34 1039.32 1039.22 1039.07 1038.86 1038.61 1038.35 1038.09 1037.85 1037.63 1037.45 1037.28 1037.11 1036.93 1036.70 1036.40 1036.03 1035.57 1035.03 1034.44 1033.82
1037.01 1037.22 1037.34 1037.38 1037.38 1037.34 1037.30 1037.27 1037.27 1037.30 1037.37 1037.47 1037.60 1037.77 1037.95 1038.14 1038.34 1038.52 1038.68 1038.82 1038.92 1038.97 1038.96 1038.90 1038.79 1038.62 1038.42 1038.19 1037.95 1037.71 1037.49 1037.29 1037.12 1036.97 1036.82 1036.67 1036.47 1036.22 1035.90 1035.50 1035.02 1034.48 1033.90 1033.31
1037.25 1037.35 1037.37 1037.33 1037.26 1037.18 1037.12 1037.10 1037.12 1037.19 1037.32 1037.48 1037.69 1037.91 1038.13 1038.33 1038.51 1038.65 1038.74 1038.78 1038.75 1038.67 1038.53 1038.35 1038.14 1037.91 1037.66 1037.42 1037.20 1037.01 1036.85 1036.71 1036.60 1036.50 1036.39 1036.24 1036.04 1035.77 1035.43 1035.01 1034.52 1033.99 1033.42 1032.87
1037.21 1037.24 1037.21 1037.14 1037.06 1037.00 1036.98 1037.00 1037.09 1037.24 1037.45 1037.69 1037.96 1038.22 1038.45 1038.64 1038.77 1038.82 1038.80 1038.69 1038.52 1038.28 1038.00 1037.70 1037.38 1037.08 1036.81 1036.58 1036.39 1036.26 1036.17 1036.11 1036.07 1036.01 1035.93 1035.80 1035.59 1035.31 1034.95 1034.51 1034.01 1033.48 1032.93 1032.41
1037.09 1037.11 1037.09 1037.04 1037.00 1036.99 1037.04 1037.14 1037.31 1037.53 1037.80 1038.10 1038.39 1038.65 1038.86 1038.98 1039.02 1038.95 1038.78 1038.51 1038.16 1037.77 1037.34 1036.91 1036.51 1036.16 1035.87 1035.65 1035.52 1035.45 1035.43 1035.44 1035.46 1035.45 1035.40 1035.27 1035.06 1034.76 1034.37 1033.91 1033.40 1032.87 1032.34 1031.85
1037.08 1037.14 1037.17 1037.18 1037.20 1037.26 1037.36 1037.52 1037.74 1038.00 1038.30 1038.59 1038.86 1039.07 1039.19 1039.22 1039.12 1038.90 1038.57 1038.13 1037.63 1037.08 1036.52 1035.99 1035.53 1035.14 1034.84 1034.65 1034.56 1034.55 1034.59 1034.66 1034.72 1034.75 1034.70 1034.57 1034.35 1034.02 1033.61 1033.13 1032.61 1032.08 1031.57 1031.09
1037.29 1037.41 1037.50 1037.57 1037.64 1037.74 1037.88 1038.05 1038.27 1038.51 1038.76 1038.99 1039.18 1039.28 1039.28 1039.17 1038.92 1038.55 1038.07 1037.49 1036.84 1036.18 1035.53 1034.94 1034.43 1034.02 1033.74 1033.57 1033.51 1033.54 1033.62 1033.72 1033.80 1033.83 1033.78 1033.63 1033.38 1033.03 1032.59 1032.10 1031.57 1031.04 1030.55 1030.10
1037.65 1037.83 1037.97 1038.07 1038.17 1038.27 1038.38 1038.52 1038.67 1038.83 1038.98 1039.09 1039.14 1039.10 1038.96 1038.70 1038.32 1037.82 1037.21 1036.53 1035.80 1035.07 1034.38 1033.75 1033.23 1032.83 1032.55 1032.41 1032.37 1032.41 1032.49 1032.59 1032.66 1032.67 1032.59 1032.41 1032.13 1031.75 1031.30 1030.80 1030.27 1029.76 1029.29 1028.87
1038.02 1038.24 1038.39 1038.49 1038.56 1038.61 1038.65 1038.69 1038.73 1038.75 1038.75 1038.71 1038.61 1038.43 1038.15 1037.76 1037.27 1036.68 1036.01 1035.28 1034.52 1033.78 1033.09 1032.48 1031.97 1031.58 1031.32 1031.18 1031.14 1031.16 1031.22 1031.29 1031.31 1031.28 1031.16 1030.94 1030.63 1030.23 1029.78 1029.28 1028.78 1028.29 1027.86 1027.48
1038.23 1038.43 1038.55 1038.60 1038.60 1038.56 1038.49 1038.40 1038.29 1038.16 1038.00 1037.81 1037.56 1037.24 1036.85 1036.38 1035.83 1035.21 1034.53 1033.81 1033.09 1032.39 1031.74 1031.17 1030.69 1030.33 1030.07 1029.92 1029.85 1029.83 1029.84 1029.85 1029.81 1029.72 1029.55 1029.29 1028.96 1028.56 1028.11 1027.64 1027.17 1026.73 1026.34 1026.01
1038.11 1038.25 1038.30 1038.27 1038.17 1038.01 1037.81 1037.58 1037.32 1037.05 1036.74 1036.42 1036.05 1035.65 1035.19 1034.69 1034.13 1033.53 1032.89 1032.24 1031.59 1030.96 1030.39 1029.88 1029.44 1029.10 1028.84 1028.67 1028.55 1028.47 1028.41 1028.34 1028.23 1028.07 1027.85 1027.57 1027.22 1026.83 1026.41 1025.98 1025.56 1025.18 1024.84 1024.56
1037.57 1037.62 1037.57 1037.44 1037.23 1036.96 1036.64 1036.29 1035.92 1035.52 1035.12 1034.70 1034.27 1033.82 1033.35 1032.86 1032.34 1031.80 1031.24 1030.68 1030.13 1029.60 1029.10 1028.65 1028.26 1027.93 1027.66 1027.44 1027.27 1027.11 1026.97 1026.82 1026.65 1026.43 1026.18 1025.87 1025.53 1025.16 1024.78 1024.40 1024.04 1023.71 1023.42 1023.18
1036.62 1036.55 1036.41 1036.18 1035.88 1035.53 1035.13 1034.70 1034.25 1033.79 1033.33 1032.87 1032.41 1031.97 1031.52 1031.07 1030.62 1030.16 1029.70 1029.24 1028.78 1028.34 1027.91 1027.51 1027.15 1026.82 1026.52 1026.26 1026.02 1025.80 1025.59 1025.37 1025.13 1024.87 1024.59 1024.29 1023.96 1023.62 1023.28 1022.95 1022.64 1022.36 1022.11 1021.90
1035.33 1035.17 1034.94 1034.65 1034.29 1033.89 1033.45 1032.99 1032.51 1032.04 1031.57 1031.11 1030.67 1030.25 1029.85 1029.46 1029.08 1028.70 1028.32 1027.94 1027.56 1027.19 1026.81 1026.44 1026.09 1025.75 1025.43 1025.12 1024.83 1024.55 1024.27 1024.00 1023.73 1023.44 1023.15 1022.86 1022.55 1022.24 1021.94 1021.65 1021.37 1021.11 1020.87 1020.66
1033.85 1033.62 1033.34 1033.02 1032.65 1032.24 1031.81 1031.35 1030.90 1030.44 1029.99 1029.57 1029.16 1028.78 1028.42 1028.08 1027.75 1027.42 1027.10 1026.78 1026.44 1026.10 1025.75 1025.40 1025.04 1024.69 1024.34 1024.00 1023.67 1023.35 1023.04 1022.74 1022.44 1022.15 1021.86 1021.57 1021.28 1020.99 1020.71 1020.43 1020.15 1019.88 1019.62 1019.38
Thickness
5404 5404 5399 5398 5395 5385 5387 5394 5396 5404 5399 5409 5396 5387 5381 5375 5370 5368 5365 5362 5358 5355 5352 5348 5346 5345 5344 5342 5342 5342 5341 5340 5340 5339 5339 5338 5338 5339 5340 5341 5342 5344 5345 5346
5388 5388 5385 5387 5391 5387 5387 5385 5383 5385 5390 5386 5377 5370 5366 5362 5359 5358 5354 5351 5347 5344 5340 5336 5334 5332 5330 5328 5327 5327 5326 5325 5325 5324 5324 5324 5324 5325 5325 5326 5327 5329 5330 5331
5382 5372 5377 5384 5390 5382 5374 5368 5370 5378 5383 5368 5363 5360 5354 5350 5348 5345 5343 5339 5335 5331 5327 5323 5320 5318 5316 5314 5313 5312 5312 5311 5311 5310 5310 5310 5310 5311 5311 5312 5313 5314 5316 5317
5362 5361 5370 5400 5375 5374 5369 5363 5355 5357 5356 5351 5348 5343 5338 5335 5332 5331 5329 5325 5321 5316 5313 5309 5306 5303 5301 5299 5298 5298 5297 5297 5296 5296 5296 5296 5296 5297 5297 5297 5299 5300 5301 5303
5351 5352 5366 5373 5363 5353 5354 5354 5346 5343 5340 5336 5330 5328 5329 5325 5320 5317 5313 5310 5306 5302 5298 5295 5292 5290 5287 5285 5284 5284 5284 5283 5283 5282 5282 5282 5283 5283 5283 5284 5285 5286 5288 5289
5341 5345 5356 5371 5348 5339 5342 5346 5338 5329 5326 5320 5318 5323 5326 5315 5307 5303 5298 5294 5290 5286 5283 5281 5278 5276 5274 5272 5271 5271 5270 5270 5270 5269 5269 5269 5270 5270 5270 5270 5272 5273 5275 5276
5334 5337 5348 5338 5327 5330 5339 5346 5326 5316 5312 5306 5305 5309 5305 5298 5293 5288 5283 5279 5275 5272 5269 5267 5264 5262 5261 5260 5259 5258 5257 5257 5256 5256 5256 5256 5257 5257 5257 5257 5258 5259 5261 5263
5322 5324 5338 5318 5314 5321 5325 5314 5308 5303 5299 5295 5292 5290 5287 5284 5278 5273 5268 5264 5260 5257 5255 5252 5250 5248 5246 5246 5246 5245 5244 5244 5243 5243 5243 5244 5243 5244 5244 5243 5244 5245 5246 5248
5322 5328 5315 5303 5305 5303 5298 5297 5294 5290 5287 5283 5279 5276 5274 5269 5263 5258 5254 5250 5246 5243 5240 5238 5235 5234 5232 5232 5231 5231 5230 5230 5230 5230 5230 5230 5230 5230 5230 5230 5230 5231 5232 5234
5300 5305 5300 5294 5290 5288 5285 5282 5280 5277 5273 5269 5266 5263 5259 5254 5249 5244 5240 5236 5232 5229 5226 5224 5222 5220 5218 5218 5217 5216 5216 5216 5216 5216 5216 5216 5216 5216 5217 5216 5216 5218 5219 5221
5289 5291 5287 5288 5282 5278 5274 5269 5265 5263 5259 5256 5253 5249 5244 5240 5235 5231 5227 5223 5219 5216 5213 5211 5208 5206 5205 5204 5203 5202 5202 5202 5202 5202 5202 5202 5203 5203 5203 5204 5204 5206 5208 5209
5292 5287 5279 5278 5273 5267 5262 5259 5255 5251 5248 5243 5239 5236 5231 5227 5223 5218 5213 5209 5206 5202 5200 5197 5195 5193 5192 5191 5190 5189 5189 5189 5188 5188 5189 5189 5190 5191 5193 5194 5195 5197 5198 5199
5275 5270 5265 5263 5258 5254 5250 5247 5243 5238 5235 5230 5226 5222 5218 5214 5210 5204 5200 5196 5193 5190 5187 5184 5182 5181 5180 5179 5178 5177 5176 5175 5175 5176 5176 5176 5177 5178 5180 5183 5184 5185 5187 5188
5260 5256 5254 5251 5246 5241 5236 5232 5228 5224 5220 5216 5212 5209 5205 5200 5196 5191 5187 5184 5180 5177 5174 5172 5170 5169 5168 5167 5166 5165 5164 5164 5164 5163 5163 5163 5164 5165 5166 5168 5170 5172 5173 5175
5249 5245 5242 5238 5232 5227 5223 5219 5215 5211 5207 5203 5198 5195 5191 5187 5183 5179 5175 5171 5168 5164 5162 5160 5158 5158 5157 5155 5155 5153 5153 5152 5152 5152 5151 5152 5152 5153 5154 5155 5156 5158 5160 5162
5239 5233 5228 5224 5221 5216 5211 5207 5203 5199 5195 5191 5186 5182 5179 5174 5170 5166 5162 5159 5155 5154 5151 5149 5148 5147 5146 5145 5144 5143 5142 5143 5143 5142 5141 5141 5141 5141 5142 5143 5144 5145 5146 5148
5228 5225 5220 5215 5211 5206 5201 5196 5192 5188 5183 5179 5175 5171 5166 5162 5158 5154 5151 5147 5145 5142 5141 5140 5139 5138 5137 5135 5134 5133 5132 5132 5133 5132 5131 5130 5130 5131 5131 5132 5132 5133 5135 5136
5219 5217 5212 5206 5201 5196 5191 5186 5181 5177 5172 5168 5164 5160 5155 5151 5148 5144 5140 5137 5134 5132 5132 5132 5130 5129 5128 5126 5125 5124 5123 5122 5122 5121 5121 5121 5121 5121 5121 5121 5122 5123 5125 5126
5208 5204 5200 5196 5191 5186 5181 5176 5171 5167 5163 5158 5154 5150 5146 5142 5138 5134 5131 5127 5125 5124 5125 5124 5124 5122 5120 5118 5118 5116 5114 5113 5113 5112 5112 5113 5112 5112 5112 5112 5112 5113 5115 5117
5198 5194 5190 5185 5180 5175 5170 5166 5161 5157 5153 5148 5144 5140 5136 5132 5129 5125 5122 5119 5118 5117 5117 5116 5115 5113 5112 5110 5110 5108 5106 5105 5104 5103 5102 5102 5102 5102 5102 5103 5103 5104 5106 5107
5187 5183 5179 5174 5170 5165 5161 5156 5152 5147 5143 5139 5135 5131 5128 5125 5121 5118 5115 5113 5113 5111 5110 5109 5107 5105 5104 5103 5103 5100 5098 5097 5096 5094 5094 5093 5093 5093 5093 5094 5095 5096 5097 5099
5175 5172 5168 5164 5159 5155 5151 5146 5142 5139 5134 5130 5127 5124 5120 5117 5114 5111 5109 5107 5106 5105 5104 5101 5100 5099 5099 5098 5095 5092 5091 5089 5088 5087 5086 5085 5085 5085 5086 5086 5086 5088 5089 5090
5166 5163 5159 5155 5150 5146 5141 5137 5134 5131 5127 5124 5121 5118 5114 5111 5108 5105 5104 5102 5100 5099 5097 5095 5094 5095 5094 5091 5088 5085 5084 5082 5081 5080 5079 5079 5078 5078 5078 5079 5080 5080 5081 5083
5159 5155 5150 5146 5141 5136 5132 5130 5127 5124 5120 5117 5115 5112 5108 5105 5102 5100 5098 5097 5095 5094 5091 5089 5089 5088 5087 5083 5081 5079 5077 5076 5075 5074 5074 5073 5073 5072 5073 5073 5074 5075 5075 5076
5151 5146 5142 5137 5133 5131 5127 5124 5120 5117 5114 5112 5109 5106 5103 5100 5097 5095 5092 5089 5088 5087 5084 5082 5082 5081 5078 5075 5074 5072 5071 5070 5070 5069 5068 5068 5068 5067 5068 5068 5069 5069 5070 5071
5143 5139 5135 5131 5127 5124 5121 5117 5114 5112 5109 5106 5103 5100 5097 5095 5092 5089 5086 5084 5081 5080 5078 5076 5073 5072 5070 5068 5067 5066 5065 5065 5064 5063 5062 5062 5062 5062 5063 5064 5064 5065 5066 5067
5135 5131 5128 5124 5121 5118 5114 5111 5108 5106 5103 5100 5097 5095 5092 5089 5086 5083 5080 5077 5075 5073 5071 5069 5067 5065 5063 5062 5061 5060 5059 5058 5058 5057 5057 5057 5057 5057 5058 5059 5060 5061 5062 5063